ROMMA est une association bénévole à but non lucratif. Votre soutien est indispensable : ADHERER à ROMMA ou FAIRE un DON

Val-d'Isère - (73, Savoie)

Haute-Maurienne (1850 m)   Longitude: 6° 58' 52'' E   Latitude: 45° 26' 53'' N Station partenaire n°93
 

Détail journalier du     <<     >>

Température Precipitation Humidité Vent Dir Rafale Dir. rafale Ensol.
Heure (°C) (mm) (%) (km/h) (km/h) (min)
01:00 6.20467E27ESE0
02:00 6.30448ESE31N0
03:00 6.30459E31N0
04:00 6.20469NNE32NNE0
05:00 5.804910ESE44NO0
06:00 5.80469ENE29NO0
07:00 5.70447ENE34NO0
08:00 5.704411OSO37NNO0
09:00 6.204114ONO40NNO60
10:00 7.103513O55NNO60
11:00 7.104023NO50NO60
12:00 8.103518NO58NNO60
13:00 8.803310ESE39N60
14:00 8.203910E34ONO0
15:00 7.50458ENE27ESE0
16:00 7.70499NE31ESE60
17:00 9.20427ESE24OSO60
18:00 8.60427NNE27NNO60
19:00 7.504511NNE44N30
20:00 6.804012O44ONO60
21:00 7.203811ESE34NO0
22:00 6.60258NNE32O0
23:00 6.30288NE29NO0
minuit 6.30248N27NO0

Graphique du 21-04-2019

 

Serveur OMMA